User: anonymous   Login
Location: ?
(35.4214°N, 139.3011°E)
Time: 08:59:45
(UTC+00:00)
Language:

Cosmos 44 - Orbit

View from above orbital plane
View from above orbital plane
View from above satellite
View from above satellite

Ground track
Ground track

The orbit data is extracted from the following two-line orbital elements,

1   876U 64053A   20266.07166927 -.00000117  00000-0  38359-5 0  9996
2   876  65.0624  21.3372 0138835 356.1899   3.8131 14.63765440982536
Epoch (UTC): 22 September 2020 01:43:12
Eccentricity: 0.0138835
inclination: 65.0624°
perigee height: 583 km
apogee height: 779 km
right ascension of ascending node: 21.3372°
argument of perigee: 356.1899°
revolutions per day: 14.63765440
mean anomaly at epoch: 3.8131°
orbit number at epoch: 98253

The dashed part of the orbit path shows where the satellite is in the earth's shadow,  

DLR